User: anonymous   Login
Location: Fort Hays State University
(38.8712°N, 99.3432°W)
Time: 20:56:35
(UTC-06:00)
Language:

Cosmos 2279 Rocket - Orbit

View from above orbital plane
View from above orbital plane
View from above satellite
View from above satellite

Ground track
Ground track

The orbit data is extracted from the following two-line orbital elements,

1 23093U 94024B   17022.68475343 +.00000159 +00000-0 +14369-3 0  9999
2 23093 082.9445 222.6999 0011139 056.0424 304.1790 13.77714155611155
Epoch (UTC): 22 January 2017 16:26:02
Eccentricity: 0.0011139
inclination: 82.9445°
perigee height: 964 km
apogee height: 980 km
right ascension of ascending node: 222.6999°
argument of perigee: 56.0424°
revolutions per day: 13.77714155
mean anomaly at epoch: 304.1790°
orbit number at epoch: 61115

The dashed part of the orbit path shows where the satellite is in the earth's shadow,  

DLR